{"data":{"norad_id":50489,"intl_designator":"2021-132W","name":"ONEWEB-0412","alt_names":[],"object_type":"PAYLOAD","status":"ACTIVE","operator":null,"country":"UK","launch_date":"2021-12-27","launch_site_code":"TYMSC","launch_vehicle":null,"mission":null,"orbit_class":"UNKNOWN","rcs_meters":null,"size_class":null,"mass_kg":null,"dimensions":null,"purposes":["comms"],"wikipedia_slug":null,"has_3d_model":false,"image_url":null,"decayed_at":null,"tle_current":{"epoch":"2026-05-24T23:06:01.933632Z","epoch_age_seconds":81558,"freshness":"FRESH","line1":"1 50489U 21132W   26144.96252238  .00000055  00000+0  10607-3 0  9995","line2":"2 50489  87.9167 340.0788 0001958  79.5661 280.5691 13.18687495218591","mean_motion":13.18687495,"eccentricity":0.0001958,"inclination_deg":87.9167,"raan_deg":340.0788,"arg_perigee_deg":79.5661,"mean_anomaly_deg":280.5691,"bstar":0.00010607,"rev_number":21859,"period_min":109.19948854145,"perigee_km":1188.2556172379,"apogee_km":1191.2191968557,"semimajor_km":7567.8744070468,"source":"CELESTRAK","updated_at":"2026-05-25T13:38:22.532340Z"}}}